Big Delta, AK

9:29 PM AKDT on July 23, 2017 (GMT -0800)
Allen Army Air Field

Weather History for PABI - November, 2012

Change the Weather History Date:

Thursday, November 29, 2012

  Actual Average Record
Temperature  
Mean Temperature -26 °F -  
Max Temperature -20 °F 9 °F 35 °F (2002)
Min Temperature -31 °F 0 °F -31 °F (2012)
Degree Days  
Heating Degree Days 90    
Moisture  
Dew Point -32 °F    
Average Humidity 74    
Maximum Humidity 81    
Minimum Humidity 63    
Precipitation  
Precipitation 0.00 in - - ()
Sea Level Pressure  
Sea Level Pressure 30.32 in    
Wind  
Wind Speed 2 mph (SSW)    
Max Wind Speed 8 mph    
Max Gust Speed -    
Visibility 10 miles    
Events      
Averages and records for this station are not official NWS values.
T = Trace of Precipitation, MM = Missing Value Source: NWS Daily Summary

Daily Weather History Graph

Daily Weather History Graph

Search for Another Location

Airport or City:

Trip Planner

Search our weather history database for the weather conditions in past years. The results will help you decide how hot, cold, wet, or windy it might be!

Date:

Astronomy

Nov. 29, 2012 Rise Set
Actual Time 9:55 AM AKST 3:06 PM AKST
Civil Twilight 8:46 AM AKST 4:15 PM AKST
Nautical Twilight 7:41 AM AKST 5:20 PM AKST
Astronomical Twilight 6:43 AM AKST 6:18 PM AKST
Moon 4:15 PM AKST (11/29) 10:52 AM AKST (11/29)
Length of Visible Light 7h 29m
Length of Day
5h 11m
Full, 99% of the Moon is Illuminated
Nov 29
Full
Dec 6
Last Quarter
Dec 12
New
Dec 19
First Quarter
Dec 28
Full

Hourly Weather History & Observations

Time (AKST) Temp. Windchill Dew Point Humidity Pressure Visibility Wind Dir Wind Speed Gust Speed Precip Events Conditions
12:53 AM -22.0 °F -33.0 °F -27.9 °F 74% 30.31 in 10.0 mi South 3.5 mph - N/A   Clear
1:53 AM -27.0 °F - -33.0 °F 73% 30.30 in 10.0 mi Calm Calm - N/A   Clear
2:53 AM -25.1 °F - -29.9 °F 78% 30.29 in 10.0 mi Calm Calm - N/A   Clear
3:53 AM -27.0 °F - -32.1 °F 77% 30.29 in 10.0 mi Calm Calm - N/A   Clear
4:53 AM -26.0 °F -40.2 °F -31.0 °F 77% 30.28 in 10.0 mi South 4.6 mph - N/A   Clear
5:53 AM -27.9 °F - -34.1 °F 73% 30.30 in 10.0 mi Calm Calm - N/A   Clear
6:53 AM -29.0 °F - -35.0 °F 73% 30.30 in 10.0 mi Calm Calm - N/A   Clear
7:53 AM -27.9 °F - -32.1 °F 81% 30.30 in 10.0 mi Calm Calm - N/A   Clear
8:53 AM -29.0 °F -49.5 °F -34.1 °F 77% 30.30 in 10.0 mi SSE 8.1 mph - N/A   Clear
9:53 AM -29.9 °F -44.8 °F - N/A% 30.32 in 10.0 mi ESE 4.6 mph - N/A   Scattered Clouds
10:53 AM -29.9 °F - - N/A% 30.32 in 10.0 mi Calm Calm - N/A   Scattered Clouds
11:53 AM -26.0 °F - -31.0 °F 77% 30.30 in 10.0 mi Calm Calm - N/A   Scattered Clouds
12:53 PM -24.0 °F - -29.0 °F 77% 30.30 in 10.0 mi Calm Calm - N/A   Scattered Clouds
1:53 PM -25.1 °F -36.5 °F -29.9 °F 78% 30.31 in 10.0 mi NNW 3.5 mph - N/A   Scattered Clouds
2:53 PM -25.1 °F - -29.9 °F 78% 30.31 in 10.0 mi Calm Calm - N/A   Scattered Clouds
3:53 PM -26.0 °F - -31.0 °F 77% 30.32 in 10.0 mi Calm Calm - N/A   Scattered Clouds
4:53 PM -27.9 °F - -33.0 °F 77% 30.34 in 10.0 mi Calm Calm - N/A   Partly Cloudy
5:53 PM -27.9 °F -42.5 °F -34.1 °F 73% 30.35 in 10.0 mi SSW 4.6 mph - N/A   Clear
6:53 PM -29.0 °F - -35.0 °F 73% 30.36 in 10.0 mi Calm Calm - N/A   Clear
7:53 PM -29.9 °F - - N/A% 30.36 in 10.0 mi Calm Calm - N/A   Clear
8:53 PM -29.9 °F - - N/A% 30.38 in 10.0 mi Calm Calm - N/A   Clear
9:30 PM -27.4 °F -41.9 °F -32.8 °F 75% 30.11 in 10.0 mi SW 4.6 mph - N/A   Clear
9:53 PM -29.0 °F - -34.1 °F 77% 30.38 in 10.0 mi Calm Calm - N/A   Clear
10:53 PM -29.9 °F -42.0 °F - N/A% 30.37 in 10.0 mi West 3.5 mph - N/A   Clear
11:53 PM -31.0 °F - - N/A% 30.37 in 10.0 mi Calm Calm - N/A   Clear